• Processing (Info)

  • MPEC 2023-Y52 : 2023 YT

    The following Minor Planet Electronic Circular may be linked-to from your own Web pages, but must not otherwise be redistributed electronically.

    A form allowing access to any MPEC is at the bottom of this page.


    Read MPEC 2023-Y51 Read MPEC 2023-Y53


    M.P.E.C. 2023-Y52                             Issued 2023 December 19, 02:49 UT
    
         The Minor Planet Electronic Circulars contain information on unusual
             minor planets, routine data on comets and natural satellites,
             and occasional editorial announcements.  They are published
        on behalf of Division F of the International Astronomical Union by the
              Minor Planet Center, Smithsonian Astrophysical Observatory,
                              Cambridge, MA 02138, U.S.A.
    			  
                 Prepared using the Tamkin Foundation Computer Network
    
                                  MPC@CFA.HARVARD.EDU
                URL https://www.minorplanetcenter.net/    ISSN 1523-6714
    
                                     2023 YT                                 
    
    
    Observations:
         K23Y00T*1C2023 12 18.31624009 55 59.473+39 57 28.51         19.81GVEY052G96
         K23Y00T 1C2023 12 18.32144809 55 55.762+39 56 23.17         19.52GVEY052G96
         K23Y00T 1C2023 12 18.32665409 55 51.913+39 55 17.65         19.78GVEY052G96
         K23Y00T 1C2023 12 18.33186709 55 48.140+39 54 12.89               VEY052G96
         K23Y00T 1C2023 12 18.34891509 55 35.652+39 50 38.83         19.48GVEY052G96
         K23Y00T 1C2023 12 18.34915609 55 35.497+39 50 35.99         19.33GVEY052G96
         K23Y00T 1C2023 12 18.34940209 55 35.332+39 50 33.18         19.87GVEY052G96
         K23Y00T 1C2023 12 18.34964409 55 35.123+39 50 30.19         20.09GVEY052G96
         K23Y00T  C2023 12 18.35432609 55 30.049+39 49 30.32         20.1 GVEY052H01
         K23Y00T  C2023 12 18.35926009 55 26.312+39 48 27.23         19.5 GVEY052H01
         K23Y00T  C2023 12 18.36950909 55 18.502+39 46 15.68         20.0 GVEY052H01
         K23Y00T  C2023 12 18.37755109 55 12.318+39 44 31.59         20.0 GVEY052H01
         K23Y00T KC2023 12 18.38845709 55 05.624+39 42 12.60         20.05GVEY052I52
         K23Y00T KC2023 12 18.38896709 55 05.203+39 42 06.12         19.62GVEY052I52
         K23Y00T KC2023 12 18.38948209 55 04.786+39 41 59.46         19.75GVEY052I52
         K23Y00T KC2023 12 18.38999309 55 04.404+39 41 52.66         19.69GVEY052I52
         K23Y00T KB2023 12 18.39182 09 54 55.79 +39 41 08.7          19.6 GVEY052734
         K23Y00T KB2023 12 18.39896 09 54 50.21 +39 39 33.2          19.6 GVEY052734
         K23Y00T KB2023 12 18.40609 09 54 44.56 +39 37 56.9          19.7 GVEY052734
         K23Y00T KB2023 12 18.41303 09 54 39.12 +39 36 23.2          19.8 GVEY052734
         K23Y00T KC2023 12 18.96936609 49 00.24 +37 20 00.3          19.6 GVEY052203
         K23Y00T KC2023 12 18.97836309 48 52.71 +37 18 05.2          20.1 VSEY052L01
         K23Y00T KC2023 12 18.97984209 48 51.62 +37 17 43.7          20.2 VSEY052L01
         K23Y00T KC2023 12 18.98132209 48 50.52 +37 17 22.4          19.8 VSEY052L01
         K23Y00T KC2023 12 18.98244809 48 50.74 +37 16 52.9          19.4 GVEY052203
         K23Y00T KC2023 12 18.98280309 48 49.43 +37 17 01.4          19.8 VSEY052L01
         K23Y00T KC2023 12 18.98428509 48 48.31 +37 16 40.0          19.8 VSEY052L01
         K23Y00T KC2023 12 18.99673109 48 12.906+37 15 51.99               VEY052N51
         K23Y00T KC2023 12 18.99721809 48 39.86 +37 13 21.0          19.8 GVEY052203
         K23Y00T KC2023 12 19.00157609 48 08.918+37 14 36.24               VEY052N51
    
    Observer details:
    203 GiaGa Observatory.  Observers S. Foglia, G. Galli.  Measurer G. Galli.
        0.36-m f/5.76 Schmidt-Cassegrain + CCD.
    734 Farpoint Observatory, Eskridge.  Observers D. Cromer, G. Hug, D. Goodin,
        R. Valentine.  Measurer D. Cromer.  0.69-m f/3.54 reflector + CMO.
    G96 Mt. Lemmon Survey.  Observer A. R. Gibbs.  Measurers E. C. Beshore, D.
        Fay, J. B. Fazekas, D. C. Fuls, A. R. Gibbs, A. D. Grauer, H. Groeller, J.
        K. Hogan, R. A. Kowalski, S. M. Larson, G. J. Leonard, D. Rankin, R. L.
        Seaman, F. C. Shelly, K. W. Wierzchos.  1.5-m reflector + 10K CCD.
    H01 Magdalena Ridge Observatory, Socorro.  Observers W. H. Ryan, E. V. Ryan.
        Measurer W. H. Ryan.  2.4-m f/8.9 Ritchey-Chretien + CCD.
    I52 Steward Observatory, Mt. Lemmon Station.  Observer R. A. Kowalski.
        Measurers E. C. Beshore, D. Fay, J. B. Fazekas, D. C. Fuls, A. R. Gibbs,
        A. D. Grauer, H. Groeller, J. K. Hogan, R. A. Kowalski, S. M. Larson, G.
        J. Leonard, D. Rankin, R. L. Seaman, F. C. Shelly, K. W. Wierzchos.  1.0-m
        prime focus + CCD.
    L01 Visnjan Observatory, Tican.  Observer K. Korlevic.  1.0-m f/2.9 reflector
        + CCD.
    N51 GROWTH India Telescope, IAO, Hanle.  Observers Y. Wagh, R. Kumar, R.
        Sharma, V. Swain, K. Angail, V. Bhalerao, G. C. Anupama, S. Barway.
        Measurer Y. Wagh.  0.70-m f/6.5 Corrected Dall-Kirkham + CCD.
    
    Orbital elements:
    2023 YT                                                  Earth MOID = 0.0113 AU
    Epoch 2023 Sept. 13.0 TT = JDT 2460200.5                Veres                   
    M  99.79666              (2000.0)            P               Q                  
    n   1.05948058     Peri.  335.96878     -0.38925706     +0.91053887             
    a   0.9529586      Node   270.87580     -0.82095168     -0.41150815             
    e   0.0500074      Incl.    8.00692     -0.41775266     -0.03974932             
    P   0.93           H   26.25          G   0.15           U   8                  
    Residuals in seconds of arc
    231218 G96  0.3-  0.4+    231218 H01  0.1+  0.1+    231218 203  0.2+  0.3+
    231218 G96  0.1-  0.2-    231218 H01  0.0   0.0     231218 L01  0.2-  0.3+
    231218 G96  1.2-  0.9-    231218 I52  0.3+  0.0     231218 L01  0.2-  0.1+
    231218 G96  1.0-  0.6-    231218 I52  0.0   0.1+    231218 L01  0.3-  0.0
    231218 G96  0.2-  0.3-    231218 I52  0.2-  0.1+    231218 203  0.0   0.3-
    231218 G96  0.0   0.1-    231218 I52  0.1-  0.0     231218 L01  0.2-  0.3+
    231218 G96  0.3+  0.2+    231218 734  0.1-  0.2-    231218 L01  0.4-  0.2+
    231218 G96  0.1-  0.3+    231218 734  0.2+  0.0     231218 N51  0.2-  1.1-
    231218 H01  0.1+  0.0     231218 734  0.2-  0.3-    231218 203  0.1-  0.0
    231218 H01  0.0   0.0     231218 734  0.2+  0.1-    231219 N51  0.3-  0.8-
    
    Ephemeris:
    2023 YT                  a,e,i = 0.95, 0.05, 8                   q = 0.9053
    Date    TT    R. A. (2000) Decl.     Delta      r    Elong.  Phase     V
    2023 11 19    11 59 01.8 +67 01 22   0.08835 1.0000    95.0    80.0    23.8
    ...
    2023 12 04    11 27 14.5 +61 34 01   0.05507 1.0003   103.8    73.1    22.5
    ...
    2023 12 12    10 48 34.9 +54 32 59   0.03656 0.9990   112.1    65.9    21.4
    ...
    2023 12 18    09 58 51.3 +41 07 43   0.02376 0.9975   123.8    55.0    20.1
    2023 12 19    09 48 20.0 +37 14 53   0.02191 0.9972   126.5    52.5    19.9
    2023 12 20    09 37 09.3 +32 37 10   0.02022 0.9969   129.4    49.7    19.6
    ...
    2023 12 26    08 18 31.0 -11 48 31   0.01591 0.9946   133.7    45.6    19.0
    ...
    2024 01 03    06 27 35.6 -52 19 48   0.02758 0.9906   104.6    73.9    21.0
    ...
    2024 01 18    04 23 12.3 -64 24 24   0.06066 0.9809    85.5    90.9    23.3
    
    M. P. C. Staff               (C) Copyright 2023 MPC           M.P.E.C. 2023-Y52
    


    Read MPEC 2023-Y51 Read MPEC 2023-Y53


    MPEC number:

    Enter an MPEC number in one of the following forms:

    • 1997-B01 (the full form)
    • J97B01 (the packed version of the full form)
    • B01 (the abbreviated form)